{"data":{"norad_id":66254,"intl_designator":"2025-245W","name":"STARLINK-35488","alt_names":[],"object_type":"PAYLOAD","status":"ACTIVE","operator":null,"country":"US","launch_date":"2025-10-29","launch_site_code":"AFETR","launch_vehicle":null,"mission":null,"orbit_class":"UNKNOWN","rcs_meters":null,"size_class":null,"mass_kg":null,"dimensions":null,"purposes":["comms"],"wikipedia_slug":null,"has_3d_model":false,"image_url":null,"decayed_at":null,"tle_current":{"epoch":"2026-09-20T21:55:15.007296Z","epoch_age_seconds":60875,"freshness":"FRESH","line1":"1 66254U 25245W   26263.91336814  .00001309  00000+0  54017-4 0  9998","line2":"2 66254  53.1573  95.8553 0002364 101.2776 258.8491 15.31672595 51167","mean_motion":15.31672595,"eccentricity":0.0002364,"inclination_deg":53.1573,"raan_deg":95.8553,"arg_perigee_deg":101.2776,"mean_anomaly_deg":258.8491,"bstar":5.4017e-5,"rev_number":5116,"period_min":94.014870064317,"perigee_km":469.2025954885,"apogee_km":472.44078315681,"semimajor_km":6848.9586893227,"source":"CELESTRAK","updated_at":"2026-09-21T09:00:35.850067Z"}}}